EDT,Max TemperatureF,Mean TemperatureF,Min TemperatureF,Max Dew PointF,MeanDew PointF,Min DewpointF,Max Humidity, Mean Humidity, Min Humidity, Max Sea Level PressureIn, Mean Sea Level PressureIn, Min Sea Level PressureIn, Max VisibilityMiles, Mean VisibilityMiles, Min VisibilityMiles, Max Wind SpeedMPH, Mean Wind SpeedMPH, Max Gust SpeedMPH,PrecipitationIn, CloudCover, Events, WindDirDegrees
2012-9-1,88,77,65,59,53,47,73,52,30,30.11,30.07,30.01,10,10,10,17,5,23,0.00,6,,46
2012-9-2,87,73,59,56,52,47,72,49,25,30.08,30.05,30.00,10,10,10,20,6,24,0.00,3,,72
2012-9-3,90,77,63,67,62,53,87,65,43,30.03,29.98,29.91,10,10,7,16,5,18,0.00,3,,131
2012-9-4,83,75,67,70,67,63,93,76,58,29.94,29.85,29.78,10,8,1,25,7,33,1.32,7,Rain-Thunderstorm,300
2012-9-5,82,74,66,65,63,60,93,72,51,29.91,29.86,29.82,10,9,4,9,2,12,0.00,6,,192
2012-9-6,82,75,67,68,65,60,84,71,58,29.90,29.85,29.80,10,10,7,14,6,18,0.01,6,Rain,221
2012-9-7,83,74,64,64,61,56,93,68,42,29.91,29.85,29.68,10,9,6,16,7,21,0.00,5,,196
2012-9-8,74,67,60,66,58,48,93,71,49,29.79,29.59,29.44,10,7,1,43,9,54,1.17,7,Rain-Thunderstorm,270
2012-9-9,69,63,56,53,48,41,86,62,37,30.02,29.90,29.81,10,10,9,17,5,22,T,6,Rain,321
2012-9-10,70,61,52,46,43,38,72,53,33,30.18,30.13,30.03,10,10,10,18,7,26,0.00,2,,318
2012-9-11,73,61,49,54,49,45,83,61,38,30.27,30.23,30.18,10,10,10,20,8,23,0.00,3,,195
2012-9-12,79,66,53,56,50,46,73,54,35,30.30,30.25,30.22,10,10,10,16,7,20,0.00,2,,198
2012-9-13,82,70,58,60,55,50,80,60,39,30.30,30.25,30.20,10,10,10,15,7,20,0.00,2,,191
2012-9-14,77,65,53,61,57,49,90,72,54,30.22,30.15,30.09,10,9,1,22,7,32,0.46,6,Rain,269
2012-9-15,68,60,52,52,48,46,83,66,48,30.25,30.20,30.14,10,10,10,14,6,18,0.00,3,,276
2012-9-16,70,60,49,56,50,46,93,75,56,30.16,30.11,30.04,10,10,10,23,8,29,0.00,4,,223
2012-9-17,75,65,54,52,49,45,83,59,35,30.05,29.97,29.82,10,10,10,21,7,25,0.00,4,,184
2012-9-18,70,61,51,63,56,43,93,80,66,29.83,29.62,29.47,10,9,2,25,10,32,0.38,7,Rain-Thunderstorm,236
2012-9-19,60,53,46,44,40,36,86,63,39,30.16,30.07,29.86,10,10,10,16,8,20,0.00,3,,243
2012-9-20,72,59,45,48,41,38,71,52,33,30.13,30.00,29.90,10,10,10,21,12,28,0.00,5,,172
2012-9-21,70,64,58,54,51,44,72,59,45,29.93,29.90,29.84,10,10,10,23,9,29,T,7,Rain,205
2012-9-22,62,57,51,54,50,38,93,69,44,29.96,29.75,29.63,10,7,1,20,8,26,0.91,7,Rain,271
2012-9-23,58,53,47,41,38,34,77,60,43,30.15,30.08,29.96,10,10,10,21,10,28,0.00,4,,257
2012-9-24,59,50,41,41,39,36,89,68,47,30.17,30.09,29.97,10,10,8,26,13,32,0.00,4,,216
2012-9-25,71,62,52,47,40,35,59,47,35,30.01,29.97,29.93,10,10,10,25,16,32,0.00,5,,210
2012-9-26,66,61,55,63,55,43,93,75,57,30.15,29.98,29.92,10,7,1,20,9,24,0.05,8,Rain,224
2012-9-27,65,55,45,46,43,40,86,69,52,30.26,30.20,30.15,10,10,10,15,7,18,0.00,5,,41
2012-9-28,62,55,48,48,43,40,77,63,49,30.16,30.10,30.06,10,10,10,13,4,25,0.00,6,,27
2012-9-29,65,55,45,48,45,42,92,68,44,30.06,30.01,29.95,10,10,10,13,2,14,T,6,,92
2012-9-30,61,56,51,49,46,41,89,69,49,29.94,29.90,29.86,10,10,5,13,5,16,0.09,7,Rain,338